Location: Hains Lake
(37.8540°N, 99.8578°W)
Time: 21:38:28
(UTC+00:00)

deb Explorer IX - Pass Details

Date: 19 April 2021
Orbit: 541 x 1098 km, 38.8° (Epoch: 13 May)

Event Time Altitude Azimuth Distance (km) Brightness Sun altitude
Rises 20:06:45 0° 275° (W) 3,328 ? 57.0°
Reaches altitude 10° 20:09:51 10° 257° (WSW) 2,502 ? 56.6°
Maximum altitude 20:13:54 19° 215° (SW) 2,072 ? 56.1°
Drops below altitude 10° 20:18:16 10° 174° (S) 2,747 ? 55.4°
Sets 20:21:55 0° 157° (SSE) 3,777 ? 54.9°
